Location: Recife
(8.0585°S, 34.8848°W)
Time: 12:09:18
(UTC-03:00)

Vanguard 1 - Pass Details

Date: 23 April 2026
Orbit: 654 x 3817 km, 34.3° (Epoch: 11 May)

Event Time Altitude Azimuth Distance (km) Brightness Sun altitude
Rises 18:58:50 0° 264° (W) 5,275 15.0 -26.3°
Reaches altitude 10° 19:02:21 10° 274° (W) 4,679 14.5 -27.2°
Maximum altitude 19:14:25 32° 332° (NNW) 4,271 13.5 -30.1°
Drops below altitude 10° 19:32:20 10° 27° (NNE) 6,806 14.1 -34.5°
Sets 19:39:12 0° 36° (NE) 7,941 14.5 -36.1°
